| time (UTC) | temp C | wind direction | speed KPH | gust KPH | rain 1hr cm | rain 24hr cm | rain mn cm | humidity % | barometer mb |
| 20260502170426 | 6 | 76 | 4.8 | 17.7 | 0.00 | 0.48 | 0.10 | 62 | 1017.4 |
| 20260502163424 | 6 | 47 | 3.2 | 14.5 | 0.00 | 0.51 | 0.10 | 73 | 1017.7 |
| 20260502162423 | 6 | 45 | 6.4 | 14.5 | 0.00 | 0.51 | 0.10 | 70 | 1017.4 |
| 20260502161421 | 6 | 61 | 8.0 | 19.3 | 0.00 | 0.51 | 0.10 | 67 | 1017.4 |
| 20260502160420 | 5 | 52 | 4.8 | 19.3 | 0.00 | 0.51 | 0.10 | 72 | 1017.7 |
| 20260502151406 | 5 | 101 | 4.8 | 12.9 | 0.00 | 0.66 | 0.10 | 79 | 1017.7 |
| 20260502150405 | 5 | 113 | 4.8 | 14.5 | 0.00 | 0.69 | 0.10 | 80 | 1017.7 |
| 20260502130221 | 2 | 52 | 6.4 | 19.3 | 0.00 | 1.12 | 0.10 | 90 | 1016.6 |
| 20260502123218 | 2 | 69 | 6.4 | 17.7 | 0.03 | 1.14 | 0.10 | 91 | 1016.6 |
| 20260502122217 | 2 | 54 | 6.4 | 12.9 | 0.03 | 1.14 | 0.10 | 92 | 1016.6 |
| 20260502121216 | 2 | 62 | 6.4 | 12.9 | 0.03 | 1.14 | 0.10 | 91 | 1016.3 |
| 20260502120143 | 2 | 69 | 4.8 | 12.9 | 0.03 | 1.14 | 0.10 | 92 | 1016.3 |
| 20260502115141 | 2 | 62 | 4.8 | 9.7 | 0.03 | 1.17 | 0.10 | 93 | 1016.3 |
| 20260502114109 | 1 | 50 | 4.8 | 9.7 | 0.03 | 1.14 | 0.08 | 93 | 1016.0 |
| 20260502113108 | 1 | 58 | 3.2 | 12.9 | 0.03 | 1.14 | 0.08 | 94 | 1016.0 |
| 20260502112108 | 1 | 37 | 4.8 | 20.9 | 0.03 | 1.14 | 0.08 | 93 | 1016.0 |
| 20260502111107 | 1 | 40 | 8.0 | 24.1 | 0.03 | 1.14 | 0.08 | 92 | 1015.7 |
| 20260502110106 | 1 | 37 | 16.1 | 24.1 | 0.03 | 1.14 | 0.08 | 92 | 1015.7 |
| 20260502105105 | 2 | 18 | 12.9 | 22.5 | 0.03 | 1.14 | 0.08 | 92 | 1015.7 |
| 20260502104105 | 2 | 15 | 12.9 | 22.5 | 0.00 | 1.14 | 0.05 | 91 | 1015.4 |
| 20260502103104 | 2 | 336 | 9.7 | 16.1 | 0.00 | 1.14 | 0.05 | 93 | 1015.4 |
| 20260502102103 | 2 | 346 | 6.4 | 11.3 | 0.03 | 1.14 | 0.05 | 93 | 1015.3 |
| 20260502101103 | 2 | 5 | 4.8 | 9.7 | 0.03 | 1.14 | 0.05 | 92 | 1015.4 |
| 20260502091059 | 2 | 106 | 0.0 | 0.0 | 0.00 | 1.12 | 0.03 | 94 | 1015.0 |
| 20260502071049 | 3 | 238 | 0.0 | 0.0 | 0.00 | 1.12 | 0.03 | 92 | 1014.7 |
| 20260502070017 | 3 | 238 | 0.0 | 1.6 | 0.00 | 1.12 | 0.03 | 92 | 1014.7 |
| 20260502065016 | 3 | 238 | 0.0 | 4.8 | 0.03 | 1.12 | 0.03 | 91 | 1015.0 |
| 20260502063842 | 4 | 268 | 3.2 | 4.8 | 0.03 | 1.12 | 0.03 | 92 | 1015.0 |
| 20260502062841 | 4 | 312 | 0.0 | 4.8 | 0.03 | 1.12 | 0.03 | 91 | 1015.0 |
| 20260502061839 | 4 | 313 | 1.6 | 4.8 | 0.03 | 1.12 | 0.03 | 91 | 1015.0 |
| 20260502060838 | 4 | 304 | 3.2 | 3.2 | 0.03 | 1.12 | 0.03 | 92 | 1015.0 |
| 20260502055838 | 4 | 309 | 1.6 | 3.2 | 0.03 | 1.12 | 0.03 | 92 | 1015.0 |
| 20260502054837 | 4 | 288 | 1.6 | 3.2 | 0.00 | 1.09 | 0.00 | 93 | 1015.4 |
| 20260502053804 | 4 | 288 | 1.6 | 3.2 | 0.00 | 1.09 | 0.00 | 93 | 1015.4 |
| 20260502052804 | 3 | 300 | 0.0 | 3.2 | 0.00 | 1.09 | 0.00 | 92 | 1015.4 |
| 20260502051803 | 3 | 300 | 1.6 | 3.2 | 0.00 | 1.09 | 0.00 | 92 | 1015.4 |
| 20260502050802 | 4 | 301 | 1.6 | 3.2 | 0.00 | 1.09 | 0.00 | 92 | 1015.4 |
| 20260502045802 | 3 | 300 | 3.2 | 3.2 | 0.00 | 1.09 | 0.00 | 92 | 1015.4 |
| 20260502044801 | 3 | 291 | 0.0 | 3.2 | 0.00 | 1.09 | 0.00 | 92 | 1015.4 |
| 20260502043729 | 3 | 291 | 1.6 | 1.6 | 0.00 | 1.09 | 0.00 | 91 | 1015.4 |
| 20260502042657 | 4 | 291 | 1.6 | 3.2 | 0.00 | 1.09 | 0.00 | 90 | 1015.4 |
| 20260502041656 | 4 | 291 | 1.6 | 4.8 | 0.00 | 1.09 | 0.00 | 90 | 1015.7 |
| 20260502040656 | 4 | 282 | 1.6 | 8.0 | 0.03 | 1.09 | 0.00 | 89 | 1015.4 |
| 20260502035655 | 4 | 260 | 3.2 | 8.0 | 0.13 | 1.09 | 1.09 | 89 | 1015.4 |
| 20260502034654 | 4 | 269 | 3.2 | 8.0 | 0.23 | 1.09 | 1.09 | 90 | 1015.4 |
| 20260502033653 | 4 | 262 | 1.6 | 3.2 | 0.28 | 1.09 | 1.09 | 90 | 1015.7 |
| 20260502032652 | 3 | 252 | 1.6 | 6.4 | 0.28 | 1.09 | 1.09 | 90 | 1015.4 |
| 20260502031652 | 4 | 297 | 0.0 | 6.4 | 0.28 | 1.09 | 1.09 | 89 | 1015.7 |
| 20260502030651 | 4 | 352 | 4.8 | 20.9 | 0.25 | 1.07 | 1.07 | 88 | 1015.7 |
| 20260502025650 | 4 | 344 | 8.0 | 22.5 | 0.15 | 0.97 | 0.97 | 89 | 1015.7 |
| 20260502024615 | 5 | 351 | 14.5 | 20.9 | 0.03 | 0.84 | 0.84 | 87 | 1015.8 |
| 20260502023615 | 6 | 11 | 8.0 | 14.5 | 0.00 | 0.81 | 0.81 | 86 | 1015.5 |
| 20260502022614 | 5 | 265 | 1.6 | 3.2 | 0.00 | 0.81 | 0.81 | 86 | 1015.5 |
| 20260502021613 | 5 | 265 | 1.6 | 4.8 | 0.00 | 0.81 | 0.81 | 85 | 1015.5 |
| 20260502020612 | 5 | 265 | 1.6 | 4.8 | 0.00 | 0.81 | 0.81 | 86 | 1015.1 |
| 20260502015611 | 5 | 258 | 1.6 | 3.2 | 0.00 | 0.81 | 0.81 | 87 | 1015.5 |
| 20260502014611 | 5 | 254 | 1.6 | 3.2 | 0.00 | 0.81 | 0.81 | 86 | 1015.1 |
| 20260502013538 | 5 | 260 | 1.6 | 3.2 | 0.00 | 0.81 | 0.81 | 85 | 1015.1 |
| 20260502012537 | 5 | 9 | 0.0 | 3.2 | 0.00 | 0.81 | 0.81 | 84 | 1015.1 |
| 20260502011536 | 5 | 9 | 3.2 | 3.2 | 0.00 | 0.81 | 0.81 | 84 | 1014.8 |
| 20260502010535 | 5 | 9 | 0.0 | 0.0 | 0.00 | 0.81 | 0.81 | 85 | 1014.8 |
| 20260502005503 | 6 | 9 | 0.0 | 0.0 | 0.00 | 0.81 | 0.81 | 84 | 1014.8 |
| 20260502004431 | 6 | 9 | 0.0 | 1.6 | 0.00 | 0.81 | 0.81 | 83 | 1014.8 |
| 20260502003430 | 6 | 9 | 0.0 | 4.8 | 0.00 | 0.81 | 0.81 | 81 | 1014.5 |
| 20260502002429 | 6 | 9 | 1.6 | 4.8 | 0.00 | 0.81 | 0.81 | 79 | 1014.5 |
| 20260502001428 | 6 | 10 | 3.2 | 3.2 | 0.00 | 0.81 | 0.81 | 79 | 1014.5 |
| 20260502000428 | 6 | 348 | 3.2 | 6.4 | 0.00 | 0.81 | 0.81 | 79 | 1014.2 |
| 20260501235354 | 6 | 352 | 3.2 | 6.4 | 0.00 | 0.81 | 0.81 | 77 | 1014.2 |
| 20260501234353 | 6 | 1 | 4.8 | 8.0 | 0.00 | 0.81 | 0.81 | 75 | 1014.2 |
| 20260501233353 | 7 | 3 | 4.8 | 8.0 | 0.00 | 0.81 | 0.81 | 72 | 1014.2 |
| 20260501232352 | 7 | 14 | 1.6 | 4.8 | 0.00 | 0.81 | 0.81 | 72 | 1014.2 |
| 20260501231351 | 8 | 10 | 3.2 | 6.4 | 0.00 | 0.81 | 0.81 | 71 | 1014.3 |
| 20260501230318 | 8 | 31 | 3.2 | 8.0 | 0.00 | 0.81 | 0.81 | 67 | 1014.3 |
| 20260501225317 | 8 | 50 | 3.2 | 14.5 | 0.00 | 0.81 | 0.81 | 71 | 1013.9 |
| 20260501224316 | 7 | 29 | 4.8 | 14.5 | 0.00 | 0.81 | 0.81 | 77 | 1013.9 |
| 20260501223213 | 7 | 67 | 3.2 | 12.9 | 0.00 | 0.81 | 0.81 | 75 | 1013.9 |
| 20260501222141 | 7 | 41 | 6.4 | 12.9 | 0.00 | 0.81 | 0.81 | 76 | 1013.9 |
| 20260501221139 | 7 | 45 | 8.0 | 14.5 | 0.00 | 0.81 | 0.81 | 75 | 1013.9 |
| 20260501220138 | 7 | 30 | 9.7 | 16.1 | 0.00 | 0.81 | 0.81 | 73 | 1013.9 |
| 20260501215106 | 7 | 24 | 9.7 | 16.1 | 0.00 | 0.81 | 0.81 | 73 | 1013.9 |
| 20260501214105 | 7 | 31 | 8.0 | 14.5 | 0.00 | 0.81 | 0.81 | 77 | 1013.9 |
| 20260501213105 | 7 | 29 | 6.4 | 16.1 | 0.00 | 0.81 | 0.81 | 75 | 1013.6 |
| 20260501212104 | 6 | 54 | 4.8 | 16.1 | 0.00 | 0.81 | 0.81 | 77 | 1013.6 |
| 20260501211103 | 7 | 56 | 8.0 | 14.5 | 0.00 | 0.81 | 0.81 | 76 | 1013.6 |
| 20260501205102 | 7 | 74 | 6.4 | 14.5 | 0.00 | 0.81 | 0.81 | 77 | 1013.3 |
| 20260501204100 | 7 | 56 | 6.4 | 14.5 | 0.00 | 0.81 | 0.81 | 79 | 1013.3 |
| 20260501203100 | 7 | 67 | 4.8 | 17.7 | 0.00 | 0.81 | 0.81 | 82 | 1013.3 |
| 20260501202059 | 6 | 43 | 11.3 | 17.7 | 0.00 | 0.81 | 0.81 | 79 | 1013.2 |
| 20260501201057 | 6 | 57 | 8.0 | 14.5 | 0.00 | 0.81 | 0.81 | 83 | 1012.9 |
| 20260501200055 | 6 | 57 | 3.2 | 14.5 | 0.00 | 0.81 | 0.81 | 83 | 1013.2 |
| 20260501195054 | 6 | 52 | 6.4 | 16.1 | 0.00 | 0.81 | 0.81 | 84 | 1013.2 |
| 20260501194054 | 5 | 72 | 9.7 | 22.5 | 0.00 | 0.81 | 0.81 | 84 | 1013.2 |
| 20260501193053 | 5 | 61 | 14.5 | 22.5 | 0.03 | 0.81 | 0.81 | 85 | 1013.2 |
| 20260501192020 | 5 | 46 | 12.9 | 20.9 | 0.03 | 0.81 | 0.81 | 88 | 1012.8 |
| 20260501191019 | 5 | 71 | 11.3 | 20.9 | 0.05 | 0.81 | 0.81 | 89 | 1012.8 |
| 20260501185947 | 5 | 53 | 8.0 | 20.9 | 0.08 | 0.81 | 0.81 | 89 | 1012.8 |
| 20260501184946 | 5 | 68 | 9.7 | 20.9 | 0.08 | 0.81 | 0.81 | 89 | 1012.5 |
| 20260501183946 | 5 | 58 | 11.3 | 20.9 | 0.08 | 0.79 | 0.79 | 88 | 1012.5 |
| 20260501182944 | 5 | 78 | 8.0 | 17.7 | 0.08 | 0.79 | 0.79 | 88 | 1012.5 |
| 20260501181943 | 5 | 64 | 8.0 | 17.7 | 0.08 | 0.79 | 0.79 | 88 | 1012.5 |
| 20260501180942 | 5 | 65 | 9.7 | 17.7 | 0.05 | 0.76 | 0.76 | 88 | 1012.1 |
| 20260501175941 | 5 | 58 | 11.3 | 17.7 | 0.03 | 0.74 | 0.74 | 88 | 1012.1 |
| 20260501174940 | 5 | 46 | 11.3 | 17.7 | 0.05 | 0.74 | 0.74 | 88 | 1012.2 |
| 20260501173939 | 5 | 40 | 9.7 | 19.3 | 0.03 | 0.71 | 0.71 | 88 | 1012.1 |
| 20260501172939 | 5 | 47 | 6.4 | 19.3 | 0.03 | 0.71 | 0.71 | 88 | 1011.8 |
| 20260501171937 | 5 | 53 | 8.0 | 19.3 | 0.03 | 0.71 | 0.71 | 88 | 1011.8 |